Nantucket, MA

3:47 AM EST on January 24, 2018 (GMT -0500)
Nantucket Memorial

Weather History for KACK - January, 2014

Change the Weather History Date:

Tuesday, January 7, 2014

  Actual Average Record
Temperature  
Mean Temperature 22 °F -  
Max Temperature 33 °F 40 °F 54 °F (1950)
Min Temperature 12 °F 25 °F 1 °F (2018)
Degree Days  
Heating Degree Days 42    
Moisture  
Dew Point 5 °F    
Average Humidity 54    
Maximum Humidity 80    
Minimum Humidity 43    
Precipitation  
Precipitation 0.00 in - - ()
Sea Level Pressure  
Sea Level Pressure 29.91 in    
Wind  
Wind Speed 19 mph (West)    
Max Wind Speed 33 mph    
Max Gust Speed 47 mph    
Visibility 9 miles    
Events Snow    
Averages and records for this station are not official NWS values.
T = Trace of Precipitation, MM = Missing Value Source: NWS Daily Summary

Daily Weather History Graph

Daily Weather History Graph

Search for Another Location

Airport or City:

Trip Planner

Search our weather history database for the weather conditions in past years. The results will help you decide how hot, cold, wet, or windy it might be!

Date:

Astronomy

Jan. 07, 2014 Rise Set
Actual Time 7:05 AM EST 4:27 PM EST
Civil Twilight 6:35 AM EST 4:58 PM EST
Nautical Twilight 6:00 AM EST 5:32 PM EST
Astronomical Twilight 5:27 AM EST 6:06 PM EST
Moon 10:48 AM EST (1/7) No Moon Set
Length of Visible Light 10h 23m
Length of Day
9h 21m
Waxing Crescent, 45% of the Moon is Illuminated
Jan 7
Waxing Crescent
Jan 7
First Quarter
Jan 15
Full
Jan 24
Last Quarter
Jan 30
New

Hourly Weather History & Observations

Time (EST) Temp. Windchill Dew Point Humidity Pressure Visibility Wind Dir Wind Speed Gust Speed Precip Events Conditions
12:53 AM 30.9 °F 21.7 °F 17.1 °F 57% 29.56 in 10.0 mi WNW 11.5 mph - N/A   Overcast
1:53 AM 30.9 °F 25.2 °F 19.0 °F 61% 29.58 in 10.0 mi West 5.8 mph - N/A   Overcast
2:53 AM 33.1 °F 20.6 °F 23.0 °F 66% 29.60 in 10.0 mi West 23.0 mph 29.9 mph 0.00 in Snow Light Snow
3:53 AM 30.0 °F 14.2 °F 16.0 °F 56% 29.61 in 10.0 mi WSW 33.4 mph 47.2 mph 0.00 in   Scattered Clouds
4:53 AM 27.0 °F 11.3 °F 15.1 °F 61% 29.64 in 10.0 mi WSW 27.6 mph 44.9 mph N/A   Overcast
5:40 AM 23.0 °F 6.9 °F 17.6 °F 80% 29.67 in 1.8 mi WNW 24.2 mph 34.5 mph 0.00 in Snow Light Snow
5:47 AM 23.0 °F 8.3 °F 15.8 °F 74% 29.67 in 3.0 mi WNW 19.6 mph 33.4 mph 0.00 in Snow Light Snow
5:53 AM 21.9 °F 6.2 °F 15.1 °F 75% 29.68 in 6.0 mi WNW 21.9 mph 29.9 mph 0.00 in Snow Light Snow
6:21 AM 21.2 °F 5.6 °F 10.4 °F 63% 29.72 in 9.0 mi WNW 20.7 mph 32.2 mph 0.00 in   Overcast
6:53 AM 19.9 °F 3.2 °F 8.1 °F 60% 29.75 in 9.0 mi WNW 23.0 mph 32.2 mph 0.00 in   Overcast
7:53 AM 18.0 °F -0.8 °F 3.0 °F 52% 29.82 in 10.0 mi West 27.6 mph 41.4 mph 0.00 in   Overcast
8:53 AM 16.0 °F -2.8 °F -2.0 °F 45% 29.89 in 10.0 mi West 25.3 mph 39.1 mph N/A   Scattered Clouds
9:53 AM 16.0 °F -2.5 °F -2.9 °F 43% 29.93 in 10.0 mi West 24.2 mph 36.8 mph N/A   Partly Cloudy
10:53 AM 17.1 °F -0.3 °F -2.0 °F 43% 29.96 in 10.0 mi West 21.9 mph 29.9 mph N/A   Clear
11:53 AM 18.0 °F 0.9 °F -0.0 °F 45% 29.96 in 10.0 mi West 21.9 mph 28.8 mph N/A   Scattered Clouds
12:53 PM 18.0 °F 1.7 °F -0.0 °F 45% 29.97 in 10.0 mi WNW 19.6 mph 28.8 mph N/A   Scattered Clouds
1:53 PM 17.1 °F 0.1 °F -2.0 °F 43% 30.00 in 10.0 mi West 20.7 mph 32.2 mph N/A   Mostly Cloudy
2:53 PM 16.0 °F 0.1 °F -0.9 °F 47% 30.02 in 10.0 mi West 17.3 mph 25.3 mph N/A   Overcast
3:53 PM 16.0 °F -0.9 °F 1.0 °F 52% 30.05 in 10.0 mi West 19.6 mph 28.8 mph N/A   Overcast
4:53 PM 16.0 °F -1.3 °F -0.0 °F 49% 30.07 in 10.0 mi West 20.7 mph 29.9 mph N/A   Mostly Cloudy
5:53 PM 16.0 °F -0.9 °F 1.0 °F 52% 30.11 in 10.0 mi West 19.6 mph 31.1 mph N/A   Mostly Cloudy
6:53 PM 15.1 °F -1.6 °F -0.9 °F 49% 30.14 in 10.0 mi WNW 18.4 mph 26.5 mph N/A   Partly Cloudy
7:53 PM 14.0 °F -3.4 °F -0.9 °F 52% 30.18 in 10.0 mi WNW 19.6 mph 29.9 mph N/A   Clear
8:53 PM 12.9 °F -4.4 °F -4.0 °F 47% 30.22 in 10.0 mi WNW 18.4 mph 25.3 mph N/A   Clear
9:53 PM 12.9 °F -1.6 °F -2.9 °F 49% 30.23 in 10.0 mi WNW 12.7 mph 24.2 mph N/A   Clear
10:53 PM 14.0 °F -3.4 °F -0.0 °F 54% 30.25 in 10.0 mi West 19.6 mph 25.3 mph N/A   Clear
11:53 PM 12.9 °F -3.9 °F -2.0 °F 51% 30.28 in 10.0 mi West 17.3 mph 23.0 mph N/A   Clear